Time,TemperatureF,DewpointF,PressureIn,WindDirection,WindDirectionDegrees,WindSpeedMPH,WindSpeedGustMPH,Humidity,HourlyPrecipIn,Conditions,Clouds,dailyrainin,SoftwareType,DateUTC
2013-04-29 00:03:00,64.0,49.9,28.17,SE,142,3.6,4.0,60,0.00,,---,0.00,VWS V14.00,2013-04-29 05:03:00,
2013-04-29 00:08:00,63.9,50.2,28.17,SE,141,4.5,5.8,61,0.00,,---,0.00,VWS V14.00,2013-04-29 05:08:00,
2013-04-29 00:13:00,63.7,50.4,28.17,SE,140,4.5,5.4,62,0.00,,---,0.00,VWS V14.00,2013-04-29 05:13:00,
2013-04-29 00:18:00,63.5,50.3,28.17,SSE,151,5.8,5.8,62,0.00,,---,0.00,VWS V14.00,2013-04-29 05:18:00,
2013-04-29 00:23:00,63.3,50.5,28.17,SSE,154,3.6,4.9,63,0.00,,---,0.00,VWS V14.00,2013-04-29 05:23:00,
2013-04-29 00:29:00,63.1,50.3,28.17,SE,142,5.4,6.3,63,0.00,,---,0.00,VWS V14.00,2013-04-29 05:29:00,
2013-04-29 00:34:00,63.1,50.8,28.17,SE,142,4.0,5.8,64,0.00,,---,0.00,VWS V14.00,2013-04-29 05:34:00,
2013-04-29 00:39:00,63.0,50.6,28.17,SSE,155,8.3,8.3,64,0.00,,---,0.00,VWS V14.00,2013-04-29 05:39:00,
2013-04-29 00:44:00,62.8,50.4,28.17,SSE,162,3.6,6.3,64,0.00,,---,0.00,VWS V14.00,2013-04-29 05:44:00,
2013-04-29 00:49:00,62.6,50.3,28.17,SE,139,8.1,8.1,64,0.00,,---,0.00,VWS V14.00,2013-04-29 05:49:00,
2013-04-29 00:54:00,62.6,50.7,28.17,SE,141,3.1,5.4,65,0.00,,---,0.00,VWS V14.00,2013-04-29 05:54:00,
2013-04-29 00:59:00,62.4,50.5,28.17,SSE,153,4.0,4.9,65,0.00,,---,0.00,VWS V14.00,2013-04-29 05:59:00,
2013-04-29 01:04:00,62.2,50.8,28.17,SE,137,4.0,5.8,66,0.00,,---,0.00,VWS V14.00,2013-04-29 06:04:00,
2013-04-29 01:09:00,62.1,50.6,28.17,SSW,197,3.1,4.5,66,0.00,,---,0.00,VWS V14.00,2013-04-29 06:09:00,
2013-04-29 01:14:00,61.7,50.2,28.17,SE,139,6.3,6.3,66,0.00,,---,0.00,VWS V14.00,2013-04-29 06:14:00,
2013-04-29 01:20:00,61.7,50.2,28.17,SSE,149,4.0,5.4,66,0.00,,---,0.00,VWS V14.00,2013-04-29 06:20:00,
2013-04-29 01:25:00,61.5,50.5,28.17,SSE,154,5.4,5.4,67,0.00,,---,0.00,VWS V14.00,2013-04-29 06:25:00,
2013-04-29 01:30:00,61.3,50.3,28.17,SSE,157,4.0,5.8,67,0.00,,---,0.00,VWS V14.00,2013-04-29 06:30:00,
2013-04-29 01:35:00,61.2,50.1,28.17,SE,141,5.4,6.3,67,0.00,,---,0.00,VWS V14.00,2013-04-29 06:35:00,
2013-04-29 01:40:00,61.0,50.0,28.17,SSE,155,3.6,3.6,67,0.00,,---,0.00,VWS V14.00,2013-04-29 06:40:00,
2013-04-29 01:45:00,60.8,50.2,28.17,SSE,147,4.0,4.0,68,0.00,,---,0.00,VWS V14.00,2013-04-29 06:45:00,
2013-04-29 01:50:00,60.8,50.2,28.17,SE,143,4.9,4.9,68,0.00,,---,0.00,VWS V14.00,2013-04-29 06:50:00,
2013-04-29 01:55:00,60.8,50.2,28.17,SE,141,4.9,4.9,68,0.00,,---,0.00,VWS V14.00,2013-04-29 06:55:00,
2013-04-29 02:00:00,60.8,50.6,28.17,South,173,5.8,5.8,69,0.00,,---,0.00,VWS V14.00,2013-04-29 07:00:00,
2013-04-29 02:05:00,60.8,50.6,28.17,South,173,2.7,3.6,69,0.00,,---,0.00,VWS V14.00,2013-04-29 07:05:00,
2013-04-29 02:10:00,60.8,50.6,28.17,SW,232,3.1,3.6,69,0.00,,---,0.00,VWS V14.00,2013-04-29 07:10:00,
2013-04-29 02:15:00,60.8,50.6,28.17,WSW,249,3.1,4.0,69,0.00,,---,0.00,VWS V14.00,2013-04-29 07:15:00,
2013-04-29 02:21:00,61.0,50.8,28.17,WSW,255,3.1,3.1,69,0.00,,---,0.00,VWS V14.00,2013-04-29 07:21:00,
2013-04-29 02:26:00,61.0,50.8,28.17,SW,234,2.7,5.4,69,0.00,,---,0.00,VWS V14.00,2013-04-29 07:26:00,
2013-04-29 02:31:00,60.8,50.6,28.17,WSW,238,3.1,4.0,69,0.00,,---,0.00,VWS V14.00,2013-04-29 07:31:00,
2013-04-29 02:36:00,60.4,50.2,28.17,WSW,241,3.1,3.6,69,0.00,,---,0.00,VWS V14.00,2013-04-29 07:36:00,
2013-04-29 02:41:00,59.9,49.7,28.17,WSW,241,2.2,2.2,69,0.00,,---,0.00,VWS V14.00,2013-04-29 07:41:00,
2013-04-29 02:46:00,59.4,49.6,28.17,West,268,4.0,4.0,70,0.00,,---,0.00,VWS V14.00,2013-04-29 07:46:00,
2013-04-29 02:51:00,58.6,49.7,28.20,WNW,284,3.6,3.6,72,0.00,,---,0.00,VWS V14.00,2013-04-29 07:51:00,
2013-04-29 02:56:00,58.1,49.1,28.20,West,274,0.0,0.0,72,0.00,,---,0.00,VWS V14.00,2013-04-29 07:56:00,
2013-04-29 03:01:00,57.9,49.7,28.20,West,274,0.0,0.0,74,0.00,,---,0.00,VWS V14.00,2013-04-29 08:01:00,
2013-04-29 03:06:00,57.9,50.0,28.20,West,268,3.1,3.1,75,0.00,,---,0.00,VWS V14.00,2013-04-29 08:06:00,
2013-04-29 03:11:00,57.9,50.4,28.20,SW,232,0.0,0.0,76,0.00,,---,0.00,VWS V14.00,2013-04-29 08:11:00,
2013-04-29 03:17:00,57.7,49.9,28.20,SW,232,0.0,0.0,75,0.00,,---,0.00,VWS V14.00,2013-04-29 08:17:00,
2013-04-29 03:22:00,57.6,49.7,28.20,SW,231,0.0,0.0,75,0.00,,---,0.00,VWS V14.00,2013-04-29 08:22:00,
2013-04-29 03:27:00,57.2,49.4,28.20,SW,232,0.0,0.0,75,0.00,,---,0.00,VWS V14.00,2013-04-29 08:27:00,
2013-04-29 03:32:00,57.0,49.2,28.20,SW,232,0.0,0.0,75,0.00,,---,0.00,VWS V14.00,2013-04-29 08:32:00,
2013-04-29 03:37:00,56.7,48.8,28.17,SW,232,0.0,0.0,75,0.00,,---,0.00,VWS V14.00,2013-04-29 08:37:00,
2013-04-29 03:42:00,56.3,48.5,28.17,SW,232,0.0,0.0,75,0.00,,---,0.00,VWS V14.00,2013-04-29 08:42:00,
2013-04-29 03:47:00,55.9,48.1,28.17,SW,232,0.0,0.0,75,0.00,,---,0.00,VWS V14.00,2013-04-29 08:47:00,
2013-04-29 03:52:00,55.8,48.0,28.17,SW,232,0.0,0.0,75,0.00,,---,0.00,VWS V14.00,2013-04-29 08:52:00,
2013-04-29 03:57:00,55.4,47.6,28.17,SW,232,0.0,0.0,75,0.00,,---,0.00,VWS V14.00,2013-04-29 08:57:00,
2013-04-29 04:02:00,55.0,47.6,28.17,SW,232,0.0,0.0,76,0.00,,---,0.00,VWS V14.00,2013-04-29 09:02:00,
2013-04-29 04:08:00,54.9,47.5,28.17,SW,231,0.0,0.0,76,0.00,,---,0.00,VWS V14.00,2013-04-29 09:08:00,
2013-04-29 04:13:00,54.7,47.6,28.17,SW,231,0.0,0.0,77,0.00,,---,0.00,VWS V14.00,2013-04-29 09:13:00,
2013-04-29 04:18:00,54.5,47.5,28.17,SW,232,0.0,0.0,77,0.00,,---,0.00,VWS V14.00,2013-04-29 09:18:00,
2013-04-29 04:23:00,54.5,47.5,28.20,SW,232,0.0,0.0,77,0.00,,---,0.00,VWS V14.00,2013-04-29 09:23:00,
2013-04-29 04:28:00,54.5,47.8,28.20,SW,231,0.0,0.0,78,0.00,,---,0.00,VWS V14.00,2013-04-29 09:28:00,
2013-04-29 04:33:00,54.5,47.8,28.20,SE,144,0.0,0.0,78,0.00,,---,0.00,VWS V14.00,2013-04-29 09:33:00,
2013-04-29 04:38:00,54.5,48.1,28.20,SE,144,0.0,2.7,79,0.00,,---,0.00,VWS V14.00,2013-04-29 09:38:00,
2013-04-29 04:43:00,54.7,48.3,28.20,SE,144,0.0,0.0,79,0.00,,---,0.00,VWS V14.00,2013-04-29 09:43:00,
2013-04-29 04:48:00,54.7,48.3,28.20,SSE,155,0.0,0.0,79,0.00,,---,0.00,VWS V14.00,2013-04-29 09:48:00,
2013-04-29 04:53:00,54.9,48.5,28.20,SSE,155,0.0,0.0,79,0.00,,---,0.00,VWS V14.00,2013-04-29 09:53:00,
2013-04-29 04:58:00,54.9,48.8,28.20,SSE,155,0.0,0.0,80,0.00,,---,0.00,VWS V14.00,2013-04-29 09:58:00,
2013-04-29 05:04:00,54.9,48.8,28.20,SSE,155,0.0,0.0,80,0.00,,---,0.00,VWS V14.00,2013-04-29 10:04:00,
2013-04-29 05:09:00,54.7,48.6,28.20,SSE,155,0.0,0.0,80,0.00,,---,0.00,VWS V14.00,2013-04-29 10:09:00,
2013-04-29 05:14:00,54.7,48.6,28.20,SSE,155,0.0,0.0,80,0.00,,---,0.00,VWS V14.00,2013-04-29 10:14:00,
2013-04-29 05:19:00,54.5,48.5,28.20,SSE,155,0.0,0.0,80,0.00,,---,0.00,VWS V14.00,2013-04-29 10:19:00,
2013-04-29 05:24:00,54.3,48.3,28.20,SSE,155,2.7,2.7,80,0.00,,---,0.00,VWS V14.00,2013-04-29 10:24:00,
2013-04-29 05:29:00,54.3,48.3,28.20,SSE,152,0.0,0.0,80,0.00,,---,0.00,VWS V14.00,2013-04-29 10:29:00,
2013-04-29 05:34:00,54.1,48.1,28.20,SSE,153,2.2,2.7,80,0.00,,---,0.00,VWS V14.00,2013-04-29 10:34:00,
2013-04-29 05:39:00,54.1,48.1,28.20,SSE,155,0.0,0.0,80,0.00,,---,0.00,VWS V14.00,2013-04-29 10:39:00,
2013-04-29 05:44:00,54.1,48.1,28.20,SSE,155,0.0,0.0,80,0.00,,---,0.00,VWS V14.00,2013-04-29 10:44:00,
2013-04-29 05:49:00,54.0,47.9,28.20,SSE,155,0.0,0.0,80,0.00,,---,0.00,VWS V14.00,2013-04-29 10:49:00,
2013-04-29 05:55:00,54.0,47.9,28.20,SSE,155,0.0,0.0,80,0.00,,---,0.00,VWS V14.00,2013-04-29 10:55:00,
2013-04-29 06:00:00,53.8,47.8,28.20,SSE,155,0.0,0.0,80,0.00,,---,0.00,VWS V14.00,2013-04-29 11:00:00,
2013-04-29 06:05:00,53.6,47.9,28.20,SSE,155,0.0,0.0,81,0.00,,---,0.00,VWS V14.00,2013-04-29 11:05:00,
2013-04-29 06:10:00,53.4,47.7,28.20,SSE,155,0.0,0.0,81,0.00,,---,0.00,VWS V14.00,2013-04-29 11:10:00,
2013-04-29 06:15:00,53.2,47.6,28.20,SSE,156,0.0,0.0,81,0.00,,---,0.00,VWS V14.00,2013-04-29 11:15:00,
2013-04-29 06:20:00,53.1,47.4,28.20,SSE,155,0.0,0.0,81,0.00,,---,0.00,VWS V14.00,2013-04-29 11:20:00,
2013-04-29 06:25:00,52.9,47.2,28.20,SSE,155,0.0,0.0,81,0.00,,---,0.00,VWS V14.00,2013-04-29 11:25:00,
2013-04-29 06:30:00,52.7,47.0,28.20,SSE,155,0.0,0.0,81,0.00,,---,0.00,VWS V14.00,2013-04-29 11:30:00,
2013-04-29 06:35:00,52.5,46.9,28.20,SSE,155,0.0,0.0,81,0.00,,---,0.00,VWS V14.00,2013-04-29 11:35:00,
2013-04-29 06:40:00,52.5,46.9,28.20,SSE,155,0.0,0.0,81,0.00,,---,0.00,VWS V14.00,2013-04-29 11:40:00,
2013-04-29 06:46:00,52.5,47.2,28.20,SSE,155,0.0,0.0,82,0.00,,---,0.00,VWS V14.00,2013-04-29 11:46:00,
2013-04-29 06:51:00,52.5,47.2,28.20,SSE,155,0.0,0.0,82,0.00,,---,0.00,VWS V14.00,2013-04-29 11:51:00,
2013-04-29 06:56:00,52.5,47.2,28.20,SSE,155,0.0,0.0,82,0.00,,---,0.00,VWS V14.00,2013-04-29 11:56:00,
2013-04-29 07:01:00,52.7,47.4,28.20,SSE,155,0.0,0.0,82,0.00,,---,0.00,VWS V14.00,2013-04-29 12:01:00,
2013-04-29 07:06:00,52.7,47.7,28.20,SSE,155,0.0,0.0,83,0.00,,---,0.00,VWS V14.00,2013-04-29 12:06:00,
2013-04-29 07:11:00,52.9,47.9,28.20,SSE,156,4.0,4.0,83,0.00,,---,0.00,VWS V14.00,2013-04-29 12:11:00,
2013-04-29 07:16:00,53.1,48.0,28.20,SSE,163,2.7,3.1,83,0.00,,---,0.00,VWS V14.00,2013-04-29 12:16:00,
2013-04-29 07:21:00,53.2,48.2,28.20,SSE,161,2.2,3.1,83,0.00,,---,0.00,VWS V14.00,2013-04-29 12:21:00,
2013-04-29 07:26:00,53.6,48.6,28.20,SSE,154,4.0,4.0,83,0.00,,---,0.00,VWS V14.00,2013-04-29 12:26:00,
2013-04-29 07:31:00,54.0,48.9,28.20,SSE,157,2.7,3.6,83,0.00,,---,0.00,VWS V14.00,2013-04-29 12:31:00,
2013-04-29 07:36:00,54.1,49.4,28.20,SSE,165,5.8,5.8,84,0.00,,---,0.00,VWS V14.00,2013-04-29 12:36:00,
2013-04-29 07:41:00,54.5,49.8,28.20,SSE,156,5.8,6.3,84,0.00,,---,0.00,VWS V14.00,2013-04-29 12:41:00,
2013-04-29 07:47:00,55.0,50.3,28.20,SE,138,4.0,4.9,84,0.00,,---,0.00,VWS V14.00,2013-04-29 12:47:00,
2013-04-29 07:52:00,55.4,50.7,28.20,SSE,151,5.8,5.8,84,0.00,,---,0.00,VWS V14.00,2013-04-29 12:52:00,
2013-04-29 07:57:00,55.9,51.2,28.20,SE,142,4.0,5.8,84,0.00,,---,0.00,VWS V14.00,2013-04-29 12:57:00,
2013-04-29 08:02:00,56.7,52.2,28.20,SSE,155,4.0,4.9,85,0.00,,---,0.00,VWS V14.00,2013-04-29 13:02:00,
2013-04-29 08:07:00,57.4,52.6,28.20,SE,130,4.0,4.5,84,0.00,,---,0.00,VWS V14.00,2013-04-29 13:07:00,
2013-04-29 08:12:00,58.5,54.0,28.20,SSE,149,3.6,4.0,85,0.00,,---,0.00,VWS V14.00,2013-04-29 13:12:00,
2013-04-29 08:17:00,59.5,55.0,28.20,SSE,153,4.0,4.0,85,0.00,,---,0.00,VWS V14.00,2013-04-29 13:17:00,
2013-04-29 08:22:00,60.6,56.1,28.20,SSE,150,5.4,5.4,85,0.00,,---,0.00,VWS V14.00,2013-04-29 13:22:00,
2013-04-29 08:27:00,61.7,56.8,28.20,SSE,154,3.1,4.9,84,0.00,,---,0.00,VWS V14.00,2013-04-29 13:27:00,
2013-04-29 08:32:00,63.0,57.7,28.20,SSE,154,3.6,4.9,83,0.00,,---,0.00,VWS V14.00,2013-04-29 13:32:00,
2013-04-29 08:38:00,64.0,58.4,28.20,SSE,150,3.1,3.6,82,0.00,,---,0.00,VWS V14.00,2013-04-29 13:38:00,
2013-04-29 08:43:00,65.1,59.2,28.20,SSE,159,3.6,3.6,81,0.00,,---,0.00,VWS V14.00,2013-04-29 13:43:00,
2013-04-29 08:48:00,66.4,59.7,28.20,SE,141,3.6,3.6,79,0.00,,---,0.00,VWS V14.00,2013-04-29 13:48:00,
2013-04-29 08:53:00,67.1,59.7,28.20,SSE,166,3.6,3.6,77,0.00,,---,0.00,VWS V14.00,2013-04-29 13:53:00,
2013-04-29 08:58:00,67.6,59.1,28.20,SSE,150,5.4,5.4,74,0.00,,---,0.00,VWS V14.00,2013-04-29 13:58:00,
2013-04-29 09:03:00,68.4,58.6,28.20,SSE,161,4.0,4.0,71,0.00,,---,0.00,VWS V14.00,2013-04-29 14:03:00,
2013-04-29 09:08:00,68.7,57.3,28.17,SSE,150,5.4,6.3,67,0.00,,---,0.00,VWS V14.00,2013-04-29 14:08:00,
2013-04-29 09:13:00,68.7,55.6,28.17,SE,127,4.0,6.3,63,0.00,,---,0.00,VWS V14.00,2013-04-29 14:13:00,
2013-04-29 09:18:00,68.9,55.8,28.17,SSE,157,4.0,4.0,63,0.00,,---,0.00,VWS V14.00,2013-04-29 14:18:00,
2013-04-29 09:23:00,69.1,56.0,28.20,SSE,155,2.7,5.4,63,0.00,,---,0.00,VWS V14.00,2013-04-29 14:23:00,
2013-04-29 09:29:00,69.8,55.8,28.20,SE,140,6.3,6.3,61,0.00,,---,0.00,VWS V14.00,2013-04-29 14:29:00,
2013-04-29 09:34:00,70.3,56.3,28.20,SSE,157,5.8,6.7,61,0.00,,---,0.00,VWS V14.00,2013-04-29 14:34:00,
2013-04-29 09:39:00,70.9,56.3,28.20,SSE,165,3.6,3.6,60,0.00,,---,0.00,VWS V14.00,2013-04-29 14:39:00,
2013-04-29 09:44:00,71.2,56.2,28.20,SE,132,3.1,3.1,59,0.00,,---,0.00,VWS V14.00,2013-04-29 14:44:00,
2013-04-29 09:49:00,71.6,56.1,28.20,South,181,4.9,5.4,58,0.00,,---,0.00,VWS V14.00,2013-04-29 14:49:00,
2013-04-29 09:54:00,71.8,56.2,28.17,South,170,4.9,4.9,58,0.00,,---,0.00,VWS V14.00,2013-04-29 14:54:00,
2013-04-29 09:59:00,72.1,56.6,28.17,ESE,112,4.0,4.0,58,0.00,,---,0.00,VWS V14.00,2013-04-29 14:59:00,
2013-04-29 10:04:00,72.7,57.1,28.17,SSE,150,4.0,4.0,58,0.00,,---,0.00,VWS V14.00,2013-04-29 15:04:00,
2013-04-29 10:09:00,73.2,56.1,28.17,South,169,4.0,4.0,55,0.00,,---,0.00,VWS V14.00,2013-04-29 15:09:00,
2013-04-29 10:14:00,73.4,55.8,28.17,SSE,156,3.1,4.0,54,0.00,,---,0.00,VWS V14.00,2013-04-29 15:14:00,
2013-04-29 10:19:00,73.9,56.8,28.17,SE,132,4.0,4.0,55,0.00,,---,0.00,VWS V14.00,2013-04-29 15:19:00,
2013-04-29 10:25:00,75.0,57.3,28.17,South,173,0.0,3.6,54,0.00,,---,0.00,VWS V14.00,2013-04-29 15:25:00,
2013-04-29 10:30:00,75.6,57.2,28.17,ESE,103,3.1,3.1,53,0.00,,---,0.00,VWS V14.00,2013-04-29 15:30:00,
2013-04-29 10:35:00,75.9,53.7,28.17,SSE,163,2.7,3.6,46,0.00,,---,0.00,VWS V14.00,2013-04-29 15:35:00,
2013-04-29 10:40:00,75.7,53.5,28.17,SW,224,4.0,6.3,46,0.00,,---,0.00,VWS V14.00,2013-04-29 15:40:00,
2013-04-29 10:45:00,75.2,53.0,28.17,SSW,212,8.1,8.1,46,0.00,,---,0.00,VWS V14.00,2013-04-29 15:45:00,
2013-04-29 10:50:00,75.2,52.4,28.17,SW,218,3.6,3.6,45,0.00,,---,0.00,VWS V14.00,2013-04-29 15:50:00,
2013-04-29 10:55:00,75.7,53.5,28.17,SE,136,2.7,2.7,46,0.00,,---,0.00,VWS V14.00,2013-04-29 15:55:00,
2013-04-29 11:00:00,76.1,52.6,28.17,SW,214,6.3,6.3,44,0.00,,---,0.00,VWS V14.00,2013-04-29 16:00:00,
2013-04-29 11:05:00,76.5,53.6,28.17,South,182,3.6,4.9,45,0.00,,---,0.00,VWS V14.00,2013-04-29 16:05:00,
2013-04-29 11:10:00,77.2,53.0,28.17,SE,142,4.0,4.9,43,0.00,,---,0.00,VWS V14.00,2013-04-29 16:10:00,
2013-04-29 11:15:00,77.5,52.7,28.17,West,272,3.1,8.1,42,0.00,,---,0.00,VWS V14.00,2013-04-29 16:15:00,
2013-04-29 11:20:00,77.7,52.8,28.17,South,177,4.0,4.0,42,0.00,,---,0.00,VWS V14.00,2013-04-29 16:20:00,
2013-04-29 11:26:00,78.3,53.3,28.17,SSW,192,4.0,6.3,42,0.00,,---,0.00,VWS V14.00,2013-04-29 16:26:00,
2013-04-29 11:31:00,78.6,53.6,28.17,SSE,149,3.1,3.6,42,0.00,,---,0.00,VWS V14.00,2013-04-29 16:31:00,
2013-04-29 11:36:00,79.3,53.6,28.17,SE,125,4.0,4.0,41,0.00,,---,0.00,VWS V14.00,2013-04-29 16:36:00,
2013-04-29 11:41:00,80.1,54.3,28.17,SSE,164,4.0,4.0,41,0.00,,---,0.00,VWS V14.00,2013-04-29 16:41:00,
2013-04-29 11:46:00,80.8,52.8,28.17,SSW,213,5.4,5.4,38,0.00,,---,0.00,VWS V14.00,2013-04-29 16:46:00,
2013-04-29 11:51:00,81.0,51.5,28.17,SSW,193,3.1,4.0,36,0.00,,---,0.00,VWS V14.00,2013-04-29 16:51:00,
2013-04-29 11:56:00,81.5,52.0,28.17,ESE,118,3.6,3.6,36,0.00,,---,0.00,VWS V14.00,2013-04-29 16:56:00,
2013-04-29 12:01:00,82.2,51.1,28.17,SE,126,2.7,3.1,34,0.00,,---,0.00,VWS V14.00,2013-04-29 17:01:00,
2013-04-29 12:06:00,82.9,51.7,28.14,South,188,4.0,6.3,34,0.00,,---,0.00,VWS V14.00,2013-04-29 17:06:00,
2013-04-29 12:11:00,83.3,50.4,28.14,South,169,4.9,5.4,32,0.00,,---,0.00,VWS V14.00,2013-04-29 17:11:00,
2013-04-29 12:17:00,83.5,50.5,28.14,SSW,192,3.6,5.8,32,0.00,,---,0.00,VWS V14.00,2013-04-29 17:17:00,
2013-04-29 12:22:00,83.7,50.7,28.14,SE,145,4.0,5.8,32,0.00,,---,0.00,VWS V14.00,2013-04-29 17:22:00,
2013-04-29 12:27:00,83.5,49.7,28.14,SSW,205,2.7,3.1,31,0.00,,---,0.00,VWS V14.00,2013-04-29 17:27:00,
2013-04-29 12:32:00,83.5,50.5,28.14,SSE,154,5.4,5.8,32,0.00,,---,0.00,VWS V14.00,2013-04-29 17:32:00,
2013-04-29 12:37:00,83.8,50.0,28.14,South,169,2.7,4.9,31,0.00,,---,0.00,VWS V14.00,2013-04-29 17:37:00,
2013-04-29 12:42:00,83.8,50.0,28.14,SSE,157,2.7,3.6,31,0.00,,---,0.00,VWS V14.00,2013-04-29 17:42:00,
2013-04-29 12:47:00,83.8,50.0,28.14,SE,138,5.8,5.8,31,0.00,,---,0.00,VWS V14.00,2013-04-29 17:47:00,
2013-04-29 12:52:00,84.4,49.6,28.14,SE,144,4.0,4.0,30,0.00,,---,0.00,VWS V14.00,2013-04-29 17:52:00,
2013-04-29 12:57:00,84.7,49.9,28.14,SSW,194,3.1,3.6,30,0.00,,---,0.00,VWS V14.00,2013-04-29 17:57:00,
2013-04-29 13:02:00,84.9,50.1,28.14,SSE,154,3.6,3.6,30,0.00,,---,0.00,VWS V14.00,2013-04-29 18:02:00,
2013-04-29 13:07:00,85.3,50.4,28.14,South,187,2.7,4.9,30,0.00,,---,0.00,VWS V14.00,2013-04-29 18:07:00,
2013-04-29 13:12:00,85.6,50.7,28.14,SSE,152,4.0,4.9,30,0.00,,---,0.00,VWS V14.00,2013-04-29 18:12:00,
2013-04-29 13:17:00,85.6,50.7,28.14,SSW,200,3.6,5.4,30,0.00,,---,0.00,VWS V14.00,2013-04-29 18:17:00,
2013-04-29 13:23:00,85.5,50.5,28.14,SE,143,0.0,2.2,30,0.00,,---,0.00,VWS V14.00,2013-04-29 18:23:00,
2013-04-29 13:28:00,85.5,50.5,28.14,SE,138,5.4,5.4,30,0.00,,---,0.00,VWS V14.00,2013-04-29 18:28:00,
2013-04-29 13:33:00,85.5,50.5,28.14,South,175,2.7,2.7,30,0.00,,---,0.00,VWS V14.00,2013-04-29 18:33:00,
2013-04-29 13:38:00,85.8,51.7,28.11,South,170,2.7,4.0,31,0.00,,---,0.00,VWS V14.00,2013-04-29 18:38:00,
2013-04-29 13:43:00,86.4,52.2,28.11,SSE,165,4.9,4.9,31,0.00,,---,0.00,VWS V14.00,2013-04-29 18:43:00,
2013-04-29 13:48:00,86.9,51.8,28.11,SE,141,4.0,5.4,30,0.00,,---,0.00,VWS V14.00,2013-04-29 18:48:00,
2013-04-29 13:53:00,87.1,51.9,28.11,South,171,0.0,0.0,30,0.00,,---,0.00,VWS V14.00,2013-04-29 18:53:00,
2013-04-29 13:58:00,87.1,51.0,28.11,SE,140,4.0,4.0,29,0.00,,---,0.00,VWS V14.00,2013-04-29 18:58:00,
2013-04-29 14:03:00,86.7,50.7,28.11,South,190,2.7,4.0,29,0.00,,---,0.00,VWS V14.00,2013-04-29 19:03:00,
2013-04-29 14:08:00,86.7,51.6,28.11,South,178,3.6,4.0,30,0.00,,---,0.00,VWS V14.00,2013-04-29 19:08:00,
2013-04-29 14:13:00,87.3,52.1,28.11,SSE,164,5.8,5.8,30,0.00,,---,0.00,VWS V14.00,2013-04-29 19:13:00,
2013-04-29 14:18:00,87.6,51.5,28.11,SSW,212,3.6,4.9,29,0.00,,---,0.00,VWS V14.00,2013-04-29 19:18:00,
2013-04-29 14:23:00,87.8,50.7,28.11,ESE,114,5.4,5.4,28,0.00,,---,0.00,VWS V14.00,2013-04-29 19:23:00,
2013-04-29 14:29:00,88.2,51.9,28.11,SSE,155,4.9,5.4,29,0.00,,---,0.00,VWS V14.00,2013-04-29 19:29:00,
2013-04-29 14:34:00,88.7,51.4,28.11,SSW,194,2.7,2.7,28,0.00,,---,0.00,VWS V14.00,2013-04-29 19:34:00,
2013-04-29 14:39:00,88.7,49.5,28.08,SSE,155,0.0,5.8,26,0.00,,---,0.00,VWS V14.00,2013-04-29 19:39:00,
2013-04-29 14:44:00,88.3,47.0,28.08,SSE,163,4.0,5.4,24,0.00,,---,0.00,VWS V14.00,2013-04-29 19:44:00,
2013-04-29 14:49:00,88.2,46.9,28.08,South,169,5.4,5.4,24,0.00,,---,0.00,VWS V14.00,2013-04-29 19:49:00,
2013-04-29 14:54:00,88.2,47.9,28.08,SW,223,3.6,4.0,25,0.00,,---,0.00,VWS V14.00,2013-04-29 19:54:00,
2013-04-29 14:59:00,88.2,45.7,28.08,WSW,239,5.8,8.3,23,0.00,,---,0.00,VWS V14.00,2013-04-29 19:59:00,
2013-04-29 15:04:00,88.0,47.8,28.08,SE,141,4.0,4.9,25,0.00,,---,0.00,VWS V14.00,2013-04-29 20:04:00,
2013-04-29 15:09:00,88.5,49.3,28.08,SSE,153,5.4,5.8,26,0.00,,---,0.00,VWS V14.00,2013-04-29 20:09:00,
2013-04-29 15:14:00,88.7,48.4,28.08,SSE,168,2.7,3.6,25,0.00,,---,0.00,VWS V14.00,2013-04-29 20:14:00,
2013-04-29 15:20:00,88.7,48.4,28.08,SSE,149,6.3,6.3,25,0.00,,---,0.00,VWS V14.00,2013-04-29 20:20:00,
2013-04-29 15:25:00,88.7,47.3,28.08,SW,219,4.0,5.4,24,0.00,,---,0.00,VWS V14.00,2013-04-29 20:25:00,
2013-04-29 15:30:00,88.3,49.1,28.08,SE,140,6.3,8.1,26,0.00,,---,0.00,VWS V14.00,2013-04-29 20:30:00,
2013-04-29 15:35:00,88.7,49.5,28.05,ESE,123,5.8,5.8,26,0.00,,---,0.00,VWS V14.00,2013-04-29 20:35:00,
2013-04-29 15:40:00,88.9,49.6,28.05,SSW,196,4.9,6.3,26,0.00,,---,0.00,VWS V14.00,2013-04-29 20:40:00,
2013-04-29 15:45:00,88.7,50.5,28.05,ESE,122,5.4,7.6,27,0.00,,---,0.00,VWS V14.00,2013-04-29 20:45:00,
2013-04-29 15:50:00,88.5,51.3,28.05,SE,139,5.8,5.8,28,0.00,,---,0.00,VWS V14.00,2013-04-29 20:50:00,
2013-04-29 15:55:00,88.5,51.3,28.05,South,172,8.3,8.3,28,0.00,,---,0.00,VWS V14.00,2013-04-29 20:55:00,
2013-04-29 16:00:00,88.5,51.3,28.05,South,177,5.4,7.6,28,0.00,,---,0.00,VWS V14.00,2013-04-29 21:00:00,
2013-04-29 16:06:00,88.2,51.0,28.05,South,169,5.4,8.3,28,0.00,,---,0.00,VWS V14.00,2013-04-29 21:06:00,
2013-04-29 16:11:00,87.8,50.7,28.05,South,183,6.3,7.6,28,0.00,,---,0.00,VWS V14.00,2013-04-29 21:11:00,
2013-04-29 16:16:00,87.6,51.5,28.05,SSE,149,4.0,5.8,29,0.00,,---,0.00,VWS V14.00,2013-04-29 21:16:00,
2013-04-29 16:21:00,87.4,51.3,28.02,SSE,156,5.4,5.8,29,0.00,,---,0.00,VWS V14.00,2013-04-29 21:21:00,
2013-04-29 16:26:00,87.1,51.0,28.02,SE,146,8.1,8.1,29,0.00,,---,0.00,VWS V14.00,2013-04-29 21:26:00,
2013-04-29 16:31:00,86.9,50.8,28.02,SE,138,6.3,6.3,29,0.00,,---,0.00,VWS V14.00,2013-04-29 21:31:00,
2013-04-29 16:36:00,86.9,50.8,28.02,SSE,164,9.6,9.6,29,0.00,,---,0.00,VWS V14.00,2013-04-29 21:36:00,
2013-04-29 16:41:00,86.7,50.7,28.02,SSE,160,6.3,8.1,29,0.00,,---,0.00,VWS V14.00,2013-04-29 21:41:00,
2013-04-29 16:46:00,86.7,50.7,28.02,South,182,6.3,8.1,29,0.00,,---,0.00,VWS V14.00,2013-04-29 21:46:00,
2013-04-29 16:52:00,86.7,52.5,28.02,ESE,121,8.3,8.7,31,0.00,,---,0.00,VWS V14.00,2013-04-29 21:52:00,
2013-04-29 16:57:00,86.5,53.2,28.02,South,169,7.2,11.0,32,0.00,,---,0.00,VWS V14.00,2013-04-29 21:57:00,
2013-04-29 17:02:00,86.4,53.0,28.02,SE,125,7.6,7.6,32,0.00,,---,0.00,VWS V14.00,2013-04-29 22:02:00,
2013-04-29 17:07:00,86.0,52.7,28.02,SSE,147,4.0,7.6,32,0.00,,---,0.00,VWS V14.00,2013-04-29 22:07:00,
2013-04-29 17:12:00,85.8,53.4,28.02,SE,134,5.8,8.7,33,0.00,,---,0.00,VWS V14.00,2013-04-29 22:12:00,
2013-04-29 17:17:00,85.6,53.3,28.02,SE,144,8.1,8.1,33,0.00,,---,0.00,VWS V14.00,2013-04-29 22:17:00,
2013-04-29 17:22:00,85.5,51.4,28.02,SE,134,8.1,8.1,31,0.00,,---,0.00,VWS V14.00,2013-04-29 22:22:00,
2013-04-29 17:27:00,85.3,51.2,28.02,SSE,159,5.4,8.3,31,0.00,,---,0.00,VWS V14.00,2013-04-29 22:27:00,
2013-04-29 17:32:00,85.1,51.1,28.02,SE,144,10.1,10.1,31,0.00,,---,0.00,VWS V14.00,2013-04-29 22:32:00,
2013-04-29 17:38:00,84.9,50.9,27.99,SE,137,8.1,13.2,31,0.00,,---,0.00,VWS V14.00,2013-04-29 22:38:00,
2013-04-29 17:43:00,84.6,52.3,27.99,South,170,10.5,15.4,33,0.00,,---,0.00,VWS V14.00,2013-04-29 22:43:00,
2013-04-29 17:48:00,84.2,52.8,27.99,SE,146,11.0,15.4,34,0.00,,---,0.00,VWS V14.00,2013-04-29 22:48:00,
2013-04-29 17:53:00,83.8,53.3,27.99,SSE,157,10.5,10.5,35,0.00,,---,0.00,VWS V14.00,2013-04-29 22:53:00,
2013-04-29 17:58:00,83.3,52.8,27.99,ESE,113,8.7,8.7,35,0.00,,---,0.00,VWS V14.00,2013-04-29 22:58:00,
2013-04-29 18:03:00,83.1,53.4,27.99,SSE,150,8.3,8.3,36,0.00,,---,0.00,VWS V14.00,2013-04-29 23:03:00,
2013-04-29 18:08:00,82.9,54.0,27.99,SE,128,7.6,7.6,37,0.00,,---,0.00,VWS V14.00,2013-04-29 23:08:00,
2013-04-29 18:13:00,83.1,53.4,27.99,SE,146,8.1,8.1,36,0.00,,---,0.00,VWS V14.00,2013-04-29 23:13:00,
2013-04-29 18:18:00,83.1,54.2,27.99,SE,126,6.3,7.6,37,0.00,,---,0.00,VWS V14.00,2013-04-29 23:18:00,
2013-04-29 18:23:00,83.3,54.3,27.99,SE,135,9.2,9.2,37,0.00,,---,0.00,VWS V14.00,2013-04-29 23:23:00,
2013-04-29 18:28:00,83.5,54.5,27.99,SSE,156,8.1,8.1,37,0.00,,---,0.00,VWS V14.00,2013-04-29 23:28:00,
2013-04-29 18:34:00,83.5,53.8,27.99,SSE,148,6.3,7.6,36,0.00,,---,0.00,VWS V14.00,2013-04-29 23:34:00,
2013-04-29 18:39:00,83.5,53.8,27.99,South,178,5.8,8.7,36,0.00,,---,0.00,VWS V14.00,2013-04-29 23:39:00,
2013-04-29 18:44:00,83.3,53.6,27.99,East,101,7.6,10.5,36,0.00,,---,0.00,VWS V14.00,2013-04-29 23:44:00,
2013-04-29 18:49:00,83.1,53.4,27.99,SE,130,10.1,10.1,36,0.00,,---,0.00,VWS V14.00,2013-04-29 23:49:00,
2013-04-29 18:54:00,82.9,52.5,27.96,SSE,154,7.6,7.6,35,0.00,,---,0.00,VWS V14.00,2013-04-29 23:54:00,
2013-04-29 18:59:00,82.6,52.2,27.96,ESE,115,6.7,10.5,35,0.00,,---,0.00,VWS V14.00,2013-04-29 23:59:00,
2013-04-29 19:04:00,82.4,52.0,27.96,SE,128,6.3,7.6,35,0.00,,---,0.00,VWS V14.00,2013-04-30 00:04:00,
2013-04-29 19:09:00,82.0,51.7,27.96,SSE,160,6.3,6.3,35,0.00,,---,0.00,VWS V14.00,2013-04-30 00:09:00,
2013-04-29 19:14:00,81.9,51.5,27.96,SE,136,5.4,10.1,35,0.00,,---,0.00,VWS V14.00,2013-04-30 00:14:00,
2013-04-29 19:20:00,81.5,51.2,27.96,SE,129,7.6,14.5,35,0.00,,---,0.00,VWS V14.00,2013-04-30 00:20:00,
2013-04-29 19:25:00,81.3,51.1,27.96,SSE,163,5.4,5.4,35,0.00,,---,0.00,VWS V14.00,2013-04-30 00:25:00,
2013-04-29 19:30:00,80.8,50.6,27.96,SE,140,4.0,6.3,35,0.00,,---,0.00,VWS V14.00,2013-04-30 00:30:00,
2013-04-29 19:35:00,80.6,50.5,27.96,SSE,148,6.3,8.3,35,0.00,,---,0.00,VWS V14.00,2013-04-30 00:35:00,
2013-04-29 19:40:00,80.2,50.1,27.96,SE,137,7.2,7.6,35,0.00,,---,0.00,VWS V14.00,2013-04-30 00:40:00,
2013-04-29 19:45:00,79.9,50.6,27.96,SSE,161,8.3,8.3,36,0.00,,---,0.00,VWS V14.00,2013-04-30 00:45:00,
2013-04-29 19:50:00,79.5,50.2,27.96,SSE,164,6.3,6.7,36,0.00,,---,0.00,VWS V14.00,2013-04-30 00:50:00,
2013-04-29 19:55:00,79.2,49.9,27.96,SSE,156,5.4,8.1,36,0.00,,---,0.00,VWS V14.00,2013-04-30 00:55:00,
2013-04-29 20:00:00,78.6,49.5,27.96,SE,133,7.6,8.7,36,0.00,,---,0.00,VWS V14.00,2013-04-30 01:00:00,
2013-04-29 20:06:00,78.3,49.9,27.96,ESE,121,5.4,10.5,37,0.00,,---,0.00,VWS V14.00,2013-04-30 01:06:00,
2013-04-29 20:11:00,77.9,49.6,27.96,SE,144,8.1,8.1,37,0.00,,---,0.00,VWS V14.00,2013-04-30 01:11:00,
2013-04-29 20:16:00,77.5,49.2,27.96,SE,129,8.1,8.3,37,0.00,,---,0.00,VWS V14.00,2013-04-30 01:16:00,
2013-04-29 20:21:00,77.2,49.6,27.96,ESE,117,10.5,10.5,38,0.00,,---,0.00,VWS V14.00,2013-04-30 01:21:00,
2013-04-29 20:26:00,77.0,50.2,27.96,SSE,157,5.8,6.3,39,0.00,,---,0.00,VWS V14.00,2013-04-30 01:26:00,
2013-04-29 20:31:00,76.8,50.7,27.96,SE,129,5.4,8.3,40,0.00,,---,0.00,VWS V14.00,2013-04-30 01:31:00,
2013-04-29 20:36:00,76.5,51.0,27.96,SSE,151,11.0,11.0,41,0.00,,---,0.00,VWS V14.00,2013-04-30 01:36:00,
2013-04-29 20:41:00,76.3,50.9,27.96,SSE,161,8.3,8.3,41,0.00,,---,0.00,VWS V14.00,2013-04-30 01:41:00,
2013-04-29 20:46:00,76.1,51.4,27.96,SE,135,8.1,10.5,42,0.00,,---,0.00,VWS V14.00,2013-04-30 01:46:00,
2013-04-29 20:51:00,75.9,51.2,27.96,SE,125,8.1,8.3,42,0.00,,---,0.00,VWS V14.00,2013-04-30 01:51:00,
2013-04-29 20:56:00,75.7,51.0,27.96,SE,142,5.4,7.6,42,0.00,,---,0.00,VWS V14.00,2013-04-30 01:56:00,
2013-04-29 21:01:00,75.6,50.9,27.96,SE,128,12.3,12.8,42,0.00,,---,0.00,VWS V14.00,2013-04-30 02:01:00,
2013-04-29 21:06:00,75.4,50.7,27.96,SE,131,8.1,8.7,42,0.00,,---,0.00,VWS V14.00,2013-04-30 02:06:00,
2013-04-29 21:11:00,75.2,50.6,27.96,SSE,148,8.1,9.2,42,0.00,,---,0.00,VWS V14.00,2013-04-30 02:11:00,
2013-04-29 21:17:00,75.2,50.6,27.96,ESE,123,10.1,11.4,42,0.00,,---,0.00,VWS V14.00,2013-04-30 02:17:00,
2013-04-29 21:22:00,75.0,50.4,27.96,SE,138,7.6,11.9,42,0.00,,---,0.00,VWS V14.00,2013-04-30 02:22:00,
2013-04-29 21:27:00,74.8,50.2,27.96,SSE,160,8.7,12.8,42,0.00,,---,0.00,VWS V14.00,2013-04-30 02:27:00,
2013-04-29 21:32:00,74.7,50.1,27.96,SSE,150,11.4,11.4,42,0.00,,---,0.00,VWS V14.00,2013-04-30 02:32:00,
2013-04-29 21:37:00,74.5,49.9,27.99,SSE,149,5.4,8.3,42,0.00,,---,0.00,VWS V14.00,2013-04-30 02:37:00,
2013-04-29 21:42:00,74.5,49.9,27.99,SSE,166,8.1,8.1,42,0.00,,---,0.00,VWS V14.00,2013-04-30 02:42:00,
2013-04-29 21:47:00,74.3,49.1,27.99,SSE,160,15.0,15.0,41,0.00,,---,0.00,VWS V14.00,2013-04-30 02:47:00,
2013-04-29 21:52:00,74.3,49.1,27.99,SE,144,8.1,8.7,41,0.00,,---,0.00,VWS V14.00,2013-04-30 02:52:00,
2013-04-29 21:57:00,74.1,48.9,27.99,SSW,203,8.3,11.0,41,0.00,,---,0.00,VWS V14.00,2013-04-30 02:57:00,
2013-04-29 22:02:00,74.1,48.9,27.99,SSE,147,5.8,8.7,41,0.00,,---,0.00,VWS V14.00,2013-04-30 03:02:00,
2013-04-29 22:07:00,73.9,48.8,27.99,SSE,158,8.7,9.6,41,0.00,,---,0.00,VWS V14.00,2013-04-30 03:07:00,
2013-04-29 22:12:00,73.8,48.6,27.99,SE,128,6.3,7.6,41,0.00,,---,0.00,VWS V14.00,2013-04-30 03:12:00,
2013-04-29 22:17:00,73.8,48.0,27.99,SW,217,8.7,8.7,40,0.00,,---,0.00,VWS V14.00,2013-04-30 03:17:00,
2013-04-29 22:22:00,73.8,48.0,27.99,SSW,211,6.3,8.1,40,0.00,,---,0.00,VWS V14.00,2013-04-30 03:22:00,
2013-04-29 22:27:00,73.6,47.8,27.99,SSE,160,8.3,10.5,40,0.00,,---,0.00,VWS V14.00,2013-04-30 03:27:00,
2013-04-29 22:32:00,73.6,47.8,27.99,SE,130,8.3,8.7,40,0.00,,---,0.00,VWS V14.00,2013-04-30 03:32:00,
2013-04-29 22:38:00,73.4,47.6,28.02,SE,128,5.4,6.3,40,0.00,,---,0.00,VWS V14.00,2013-04-30 03:38:00,
2013-04-29 22:43:00,73.2,47.5,28.02,South,189,8.7,8.7,40,0.00,,---,0.00,VWS V14.00,2013-04-30 03:43:00,
2013-04-29 22:48:00,73.0,48.0,28.02,ESE,116,4.9,8.3,41,0.00,,---,0.00,VWS V14.00,2013-04-30 03:48:00,
2013-04-29 22:53:00,72.9,47.8,28.02,SSE,161,5.4,8.3,41,0.00,,---,0.00,VWS V14.00,2013-04-30 03:53:00,
2013-04-29 22:58:00,72.9,47.8,28.02,SE,144,8.3,8.3,41,0.00,,---,0.00,VWS V14.00,2013-04-30 03:58:00,
2013-04-29 23:01:00,72.7,47.7,28.02,South,175,5.4,6.7,41,0.00,,---,0.00,VWS V14.00,2013-04-30 04:01:00,
2013-04-29 23:02:00,72.7,47.7,28.02,SSE,160,8.7,8.7,41,0.00,,---,0.00,VWS V14.00,2013-04-30 04:02:00,
2013-04-29 23:07:00,72.7,47.7,28.02,SE,139,8.1,8.7,41,0.00,,---,0.00,VWS V14.00,2013-04-30 04:07:00,
2013-04-29 23:12:00,72.5,47.5,28.02,SE,127,10.5,10.5,41,0.00,,---,0.00,VWS V14.00,2013-04-30 04:12:00,
2013-04-29 23:17:00,72.5,47.5,28.02,SSE,154,5.4,10.1,41,0.00,,---,0.00,VWS V14.00,2013-04-30 04:17:00,
2013-04-29 23:22:00,72.3,47.3,28.02,SSW,198,5.8,5.8,41,0.00,,---,0.00,VWS V14.00,2013-04-30 04:22:00,
2013-04-29 23:27:00,72.1,47.2,28.02,SSE,156,3.1,7.6,41,0.00,,---,0.00,VWS V14.00,2013-04-30 04:27:00,
2013-04-29 23:33:00,71.8,47.5,28.02,SSE,152,8.1,8.1,42,0.00,,---,0.00,VWS V14.00,2013-04-30 04:33:00,
2013-04-29 23:38:00,71.6,47.3,28.02,SSE,148,4.9,8.7,42,0.00,,---,0.00,VWS V14.00,2013-04-30 04:38:00,
2013-04-29 23:43:00,71.4,47.2,28.02,SE,146,4.9,8.1,42,0.00,,---,0.00,VWS V14.00,2013-04-30 04:43:00,
2013-04-29 23:48:00,71.4,47.2,28.02,SSE,158,8.3,10.1,42,0.00,,---,0.00,VWS V14.00,2013-04-30 04:48:00,
2013-04-29 23:53:00,71.4,47.2,28.02,SSE,164,6.3,6.3,42,0.00,,---,0.00,VWS V14.00,2013-04-30 04:53:00,
2013-04-29 23:58:00,71.2,47.0,28.02,South,184,5.4,5.4,42,0.00,,---,0.00,VWS V14.00,2013-04-30 04:58:00,